weather.gov     
National Weather Service

Regional Weather Roundup
NWS Homepage
This page is being discontinued on March 12, 2014.
The same data is available at this site. Please update your bookmarks.
Thank you, and we apologize for the inconvenience.
Please send an email to SR-SRH.Webmaster@noaa.gov with any concerns.


Current Version
Previous Version:    01  02  03  04  05  06  07  08  09  10  11  12  13  14  15  16  17  18  19  20  21  22  23  24  25  26  27  28  29  30  
   31  32  33  34  35  36  37  38  39  40  41  42  43  44  45  46  47  48  49  50  51  52  53  
[Printable]
609
ASUS43 KFSD 311110
RWRFSD

WEATHER ROUNDUP FOR SE SOUTH DAKOTA/SW MINNESOTA/NW IOWA
NATIONAL WEATHER SERVICE SIOUX FALLS SD
500 AM CST SAT JAN 31 2015

NOTE: "FAIR" INDICATES FEW OR NO CLOUDS BELOW 12,000 FEET WITH NO
SIGNIFICANT WEATHER AND OR OBSTRUCTIONS TO VISIBILITY.


SDZ038>040-050-052>070-311200-
SOUTHEAST SOUTH DAKOTA

CITY           SKY/WX    TMP DP  RH WIND       PRES   REMARKS
CHAMBERLAIN    MOCLDY    27  25  91 NE7       30.09F WCI  20
HURON          CLOUDY    26  24  92 NE10      30.13F FOG     WCI  16
MADISON        FAIR      25  25 100 NE15      30.09F WCI  12
MITCHELL       MOCLDY    26  24  92 N8        30.11S WCI  18
SIOUX FALLS    MOCLDY    22  21  96 NE5       30.10R WCI  16
WINNER         FAIR      28  22  78 NE3       30.06F
YANKTON        CLOUDY    30  25  80 CALM      30.10R
$$

MNZ071-072-080-081-089-090-097-098-311200-
SOUTHWEST MINNESOTA

CITY           SKY/WX    TMP DP  RH WIND       PRES   REMARKS
FAIRMONT       PTCLDY    25  19  80 W3        30.11S
JACKSON        PTCLDY    27  23  86 W6        30.12S WCI  20
LUVERNE        MOCLDY    27  23  86 CALM      30.12R FOG
MARSHALL       CLOUDY    25  19  80 N16G22    30.17S WCI  12
MONTEVIDEO     CLOUDY    25  25 100 NE13G18   30.17S WCI  13
PIPESTONE      MOCLDY    27  25  93 NE12      30.10F WCI  16
REDWOOD FALLS  CLEAR     24  21  88 NW7       30.15R WCI  16
TRACY          PTCLDY    26  24  93 N10       30.14S WCI  16
WINDOM         PTCLDY    25  25 100 NW7       30.12S WCI  17
WORTHINGTON    MOCLDY    25  21  86 CALM      30.12S
$$

IAZ001>003-012>014-020>022-031-032-NEZ013-014-SDZ071-311200-
NORTHWEST IOWA

CITY           SKY/WX    TMP DP  RH WIND       PRES   REMARKS
CHEROKEE       MOCLDY    31  28  90 CALM      30.13S
DENISON        CLOUDY    34  32  93 S7        30.14S WCI  28
ESTHERVILLE    PTCLDY    26  23  88 W9        30.12R WCI  17
LE MARS        CLOUDY    30  28  93 S7        30.12F WCI  23
ORANGE CITY    MOCLDY    28  25  86 S5        30.10F WCI  23
SHELDON        MOCLDY    28  27  93 S5        30.10S WCI  23
SIOUX CITY     CLOUDY    30  26  85 E7        30.13S WCI  23
SPENCER        MOCLDY    28  23  81 W3        30.12S
STORM LAKE     CLOUDY    32  30  93 SW10      30.13S WCI  24
$$

ABBREVIATIONS USED IN REMARKS
   TC - TEMPERATURE IN CELSIUS
  WCI - WIND CHILL INDEX
   HX - HEAT INDEX
  VSB - VISIBILITY





U.S. Dept. of Commerce
NOAA National Weather Service
1325 East West Highway
Silver Spring, MD 20910
E-mail: w-nws.webmaster@noaa.gov
Page last modified: May 16, 2007
NATIONAL WEATHER SERVICE: for Safety, for Work, for Fun - FOR LIFE